Theta_e
281 281 281 281 281 280 281 281 282 281 281 281 281 280 281 281 281 281 282 281 281 283
280 280 280 280 280 280 281 280 280 281 280 280 280 279 279 279 279 280 280 281 281 281
279 279 279 279 278 278 279 279 279 279 279 279 279 279 278 278 279 278 279 280 280 281
278 278 278 277 277 277 278 277 277 277 277 277 277 277 277 276 276 276 277 278 278 279
277 277 276 276 276 277 276 276 276 276 276 276 276 276 275 274 275 275 275 276 277 278
275 275 274 274 275 275 274 274 274 273 275 275 275 274 274 274 273 274 275 277 277 278
273 273 273 273 273 273 273 271 271 271 272 273 273 273 272 273 273 274 275 277 278 279
272 272 271 271 271 270 269 269 269 270 270 270 271 272 272 272 273 274 275 276 277 278
270 269 269 268 267 267 267 267 267 267 267 268 270 272 273 273 273 274 274 274 277 278
267 267 265 266 265 265 264 265 265 266 266 267 268 271 272 274 273 274 274 275 277 278
266 264 264 263 263 263 264 264 264 265 265 265 267 271 272 274 274 274 275 276 277 278
263 262 262 261 262 263 263 263 263 265 265 265 266 271 272 274 273 274 275 277 278 279
263 262 261 262 262 263 263 263 264 264 265 266 266 270 272 273 273 273 275 277 278 279
263 262 262 263 263 262 262 262 262 263 265 266 268 269 272 274 274 274 275 275 277 278
Wind_Speed
15 11 12 14 13 12 12 13 16 15 16 17 16 16 16 13 13 16 13 18 16 13
14 15 14 17 16 13 16 14 17 18 18 18 17 17 17 13 15 16 16 16 15 14
15 15 15 15 17 18 17 19 19 19 19 19 18 18 18 15 16 16 14 13 17 16
15 16 16 16 17 17 18 19 20 20 20 19 19 18 17 19 20 19 18 18 16 18
17 17 17 17 18 18 19 19 19 21 21 21 20 18 19 19 19 21 20 20 17 18
17 17 18 18 19 19 20 21 20 22 21 20 18 20 20 20 21 20 20 18 18 19
17 18 18 19 20 20 21 22 22 22 21 20 21 20 20 20 19 19 19 19 18 19
18 18 19 19 21 22 21 20 21 21 21 21 19 14 18 19 19 19 19 18 18 19
15 16 16 20 21 21 21 21 20 20 20 20 14 25 26 26 17 18 18 17 17 18
15 15 17 17 18 17 20 19 19 19 19 19 18 27 31 27 16 16 16 17 16 16
14 16 16 16 16 16 16 17 16 17 18 17 15 27 27 27 17 15 16 16 17 15
15 16 16 16 16 16 16 16 16 15 17 17 16 26 26 23 16 15 17 11 12 14
15 15 15 16 16 15 15 15 14 16 16 18 17 23 27 23 12 14 11 13 10 15
14 15 14 15 14 13 14 14 14 16 15 16 15 17 26 25 14 11 10 10 10 9
Wind_Direction
319 316 313 313 311 306 305 304 306 304 301 299 297 296 295 291 289 284 283 283 282 277
320 319 315 312 307 304 304 304 302 300 299 298 297 297 297 292 289 289 287 279 279 279
319 317 313 310 309 308 306 306 303 301 299 299 296 296 297 295 292 292 285 281 281 282
319 318 315 312 311 309 309 309 308 304 302 299 296 296 297 295 295 289 287 286 283 279
319 319 316 316 314 312 312 312 310 309 298 299 294 297 297 297 296 292 288 283 283 279
321 321 320 318 314 318 313 311 311 309 298 297 294 300 298 297 294 288 282 282 285 283
324 324 323 320 320 317 318 315 310 306 305 306 303 301 299 293 295 297 290 286 283 283
324 324 322 320 323 320 319 315 315 315 314 311 304 297 300 302 294 289 287 289 287 286
320 320 320 323 321 322 319 321 319 317 312 311 307 307 309 305 294 300 292 289 287 286
322 323 321 322 319 320 320 317 314 315 314 309 311 313 304 309 297 291 287 284 286 288
328 321 322 321 320 316 314 320 314 319 318 311 305 316 310 312 306 300 295 289 286 293
325 322 323 321 319 316 322 315 320 316 313 312 309 313 316 318 308 298 298 301 297 296
324 322 320 318 318 320 322 318 323 318 314 313 310 313 321 319 318 313 317 308 316 322
327 322 317 319 318 322 318 320 315 315 318 313 314 319 324 322 327 316 315 327 327 323